Retour au catalogue

ANDURIL-216

ActifRadio amateurSSO
NORAD 69879·PAYLOAD·🇺🇸 United States

Lancé Jul 7, 2026 depuis Vandenberg Space Force Base

Loading…

Prochains Passages (prochaines 24 heures)

TLE

FraisSource: Space-Track

Époque: Sep 14, 2026, 10:34 UTC

1 69879U 26156L   26257.44035138  .00000981  00000-0  10320-3 0  9996
2 69879  97.7469 156.7272 0004050 283.6921  76.3847 14.91625523 10300

Suivez ANDURIL-216 en temps réel avec AllMySat

Download on the App Store